Location: Hurstbourne Priors
(51.2000°N, 1.3667°W)
Time: 21:58:37
(UTC+00:00)

Altair - Pass Details

Date: 20 April 2021
Orbit: 1501 x 1683 km, 47.2° (Epoch: 13 May)

Event Time Altitude Azimuth Distance (km) Brightness Sun altitude
Rises 07:00:03 0° 242° (WSW) 4,863 9.6 17.7°
Reaches altitude 10° 07:03:15 10° 239° (WSW) 3,856 9.2 18.2°
Maximum altitude 07:12:50 62° 162° (SSE) 1,755 8.3 19.7°
Drops below altitude 10° 07:22:03 10° 85° (E) 3,720 11.4 21.2°
Sets 07:25:05 0° 83° (E) 4,684 11.4 21.6°
